GW5633 Weather Reports


time (UTC)temp
C
wind
direction
speed
KPH
gust
KPH
rain 1hr
cm
rain 24hr
cm
rain mn
cm
humidity
%
barometer
mb
20260506045012 18 195 0.0 0.0 0.00 0.00 0.00 61 1010.3
20260506044510 18 142 0.0 0.0 0.00 0.00 0.00 61 1010.4
20260506044006 19 217 1.6 3.2 0.00 0.00 0.00 61 1010.5
20260506043503 19 210 3.2 3.2 0.00 0.00 0.00 60 1010.4
20260506043002 19 219 0.0 0.0 0.00 0.00 0.00 60 1010.4
20260506042500 19 200 4.8 8.0 0.00 0.00 0.00 60 1010.4
20260506041957 19 224 0.0 1.6 0.00 0.00 0.00 60 1010.5
20260506041455 19 178 1.6 4.8 0.00 0.00 0.00 61 1010.4
20260506040952 19 191 0.0 1.6 0.00 0.00 0.00 60 1010.3
20260506040450 19 204 3.2 4.8 0.00 0.00 0.00 60 1010.3
20260506035946 19 211 0.0 1.6 0.00 0.00 0.00 60 1010.4
20260506035443 20 200 0.0 0.0 0.00 0.00 0.00 59 1010.3
20260506034939 20 223 1.6 3.2 0.00 0.00 0.00 59 1010.3
20260506034437 20 191 3.2 3.2 0.00 0.00 0.00 58 1010.6
20260506033934 20 205 1.6 3.2 0.00 0.00 0.00 58 1010.6
20260506033431 20 194 0.0 3.2 0.00 0.00 0.00 57 1010.3
20260506032928 20 197 4.8 4.8 0.00 0.00 0.00 57 1010.5
20260506032425 20 225 4.8 9.7 0.00 0.00 0.00 56 1010.1
20260506031921 20 202 4.8 4.8 0.00 0.00 0.00 55 1010.2
20260506031419 20 218 0.0 1.6 0.00 0.00 0.00 54 1010.3
20260506030916 20 193 3.2 3.2 0.00 0.00 0.00 53 1010.3
20260506030414 20 194 1.6 1.6 0.00 0.00 0.00 52 1010.2
20260506025911 21 202 3.2 3.2 0.00 0.00 0.00 51 1010.3
20260506025408 21 200 0.0 1.6 0.00 0.00 0.00 50 1010.3
20260506024904 21 185 1.6 9.7 0.00 0.00 0.00 50 1010.1
20260506024402 21 259 0.0 0.0 0.00 0.00 0.00 49 1010.2
20260506023857 21 209 11.3 14.5 0.00 0.00 0.00 48 1010.3
20260506023355 21 196 0.0 0.0 0.00 0.00 0.00 47 1010.1
20260506022851 21 196 4.8 8.0 0.00 0.00 0.00 47 1010.2
20260506022349 21 201 4.8 11.3 0.00 0.00 0.00 46 1010.1
20260506021847 21 225 0.0 1.6 0.00 0.00 0.00 46 1010.1
20260506021343 22 197 0.0 1.6 0.00 0.00 0.00 46 1010.1
20260506020840 22 170 1.6 4.8 0.00 0.00 0.00 45 1010.1
20260506020338 22 211 3.2 4.8 0.00 0.00 0.00 45 1009.9
20260506015835 22 215 9.7 12.9 0.00 0.00 0.00 45 1010.0
20260506015333 22 240 3.2 4.8 0.00 0.00 0.00 45 1009.8
20260506014829 22 167 3.2 4.8 0.00 0.00 0.00 45 1010.0
20260506014326 22 207 3.2 3.2 0.00 0.00 0.00 44 1009.7
20260506013823 22 197 4.8 9.7 0.00 0.00 0.00 45 1009.7
20260506013320 22 216 6.4 11.3 0.00 0.00 0.00 45 1009.5
20260506012817 22 237 4.8 11.3 0.00 0.00 0.00 45 1009.7
20260506012314 22 199 3.2 4.8 0.00 0.00 0.00 45 1009.7
20260506011811 22 207 4.8 4.8 0.00 0.00 0.00 45 1009.6
20260506011307 22 200 8.0 12.9 0.00 0.00 0.00 45 1009.6
20260506010805 22 156 6.4 12.9 0.00 0.00 0.00 45 1009.4
20260506010303 22 207 3.2 4.8 0.00 0.00 0.00 45 1009.3
20260506005759 22 188 3.2 4.8 0.00 0.00 0.00 44 1009.5
20260506005256 22 207 3.2 3.2 0.00 0.00 0.00 44 1009.2
20260506004752 22 221 6.4 11.3 0.00 0.00 0.00 43 1009.2
20260506004250 23 198 1.6 3.2 0.00 0.00 0.00 42 1009.1
20260506003745 23 171 6.4 11.3 0.00 0.00 0.00 41 1009.2
20260506003242 23 166 1.6 4.8 0.00 0.00 0.00 41 1009.1
20260506002739 23 209 0.0 1.6 0.00 0.00 0.00 40 1009.1
20260506002235 23 204 3.2 4.8 0.00 0.00 0.00 39 1009.1
20260506001730 23 207 8.0 9.7 0.00 0.00 0.00 39 1008.8
20260506001229 23 184 3.2 4.8 0.00 0.00 0.00 38 1009.1
20260506000725 23 207 3.2 4.8 0.00 0.00 0.00 38 1008.8
20260506000223 23 212 4.8 9.7 0.00 0.00 0.00 38 1008.9
20260505235720 23 212 6.4 14.5 0.00 0.00 0.00 38 1009.0
20260505235218 24 214 3.2 3.2 0.00 0.00 0.00 37 1008.8
20260505234714 24 212 9.7 17.7 0.00 0.00 0.00 37 1008.6
20260505234212 24 205 3.2 4.8 0.00 0.00 0.00 37 1008.8
20260505233708 24 206 6.4 9.7 0.00 0.00 0.00 37 1008.9
20260505233206 24 188 8.0 16.1 0.00 0.00 0.00 36 1008.7
20260505232703 25 152 0.0 1.6 0.00 0.00 0.00 36 1008.8
20260505232200 25 177 4.8 4.8 0.00 0.00 0.00 35 1008.6
20260505231657 25 180 11.3 17.7 0.00 0.00 0.00 36 1008.6
20260505231156 25 198 4.8 8.0 0.00 0.00 0.00 36 1008.4
20260505230654 25 183 0.0 3.2 0.00 0.00 0.00 36 1008.4
20260505230151 25 226 6.4 9.7 0.00 0.00 0.00 35 1008.2
20260505225647 25 198 3.2 8.0 0.00 0.00 0.00 35 1008.6
20260505225143 25 167 6.4 8.0 0.00 0.00 0.00 35 1008.2
20260505224639 25 236 9.7 16.1 0.00 0.00 0.00 34 1008.4
20260505224137 25 201 6.4 16.1 0.00 0.00 0.00 34 1008.2
20260505223634 25 223 4.8 9.7 0.00 0.00 0.00 34 1008.2
20260505223130 25 355 3.2 3.2 0.00 0.00 0.00 35 1007.7
20260505222626 25 216 8.0 11.3 0.00 0.00 0.00 34 1007.9
20260505222123 25 187 11.3 14.5 0.00 0.00 0.00 34 1008.1
20260505221620 25 285 6.4 11.3 0.00 0.00 0.00 34 1008.0
20260505221116 25 221 9.7 12.9 0.00 0.00 0.00 35 1007.9
20260505220614 25 259 8.0 11.3 0.00 0.00 0.00 34 1007.9
20260505220111 25 246 11.3 14.5 0.00 0.00 0.00 34 1008.0
20260505215609 25 193 6.4 11.3 0.00 0.00 0.00 34 1007.7
20260505215107 26 197 9.7 16.1 0.00 0.00 0.00 33 1007.9
20260505214605 26 206 4.8 9.7 0.00 0.00 0.00 33 1008.1
20260505214102 25 217 11.3 14.5 0.00 0.00 0.00 33 1007.9
20260505213559 26 233 8.0 11.3 0.00 0.00 0.00 33 1008.2
20260505213055 26 184 8.0 12.9 0.00 0.00 0.00 32 1008.1
20260505212551 26 216 9.7 12.9 0.00 0.00 0.00 33 1008.1
20260505212049 25 218 3.2 4.8 0.00 0.00 0.00 34 1008.0
20260505211546 25 264 4.8 4.8 0.00 0.00 0.00 33 1007.9
20260505211043 25 247 3.2 4.8 0.00 0.00 0.00 33 1007.8
20260505210539 25 261 11.3 14.5 0.00 0.00 0.00 33 1007.8
20260505210037 25 186 11.3 14.5 0.00 0.00 0.00 34 1007.6
20260505205535 25 190 11.3 17.7 0.00 0.00 0.00 32 1007.7
20260505205031 25 203 17.7 27.4 0.00 0.00 0.00 32 1007.7
20260505204529 26 184 19.3 25.7 0.00 0.00 0.00 32 1007.7
20260505204026 26 213 8.0 12.9 0.00 0.00 0.00 31 1007.9
20260505203523 26 199 6.4 12.9 0.00 0.00 0.00 31 1007.7
20260505203020 26 286 9.7 20.9 0.00 0.00 0.00 31 1007.8
20260505202516 26 225 14.5 17.7 0.00 0.00 0.00 30 1007.7
20260505202012 26 179 20.9 29.0 0.00 0.00 0.00 30 1007.5
20260505201510 26 183 9.7 20.9 0.00 0.00 0.00 30 1007.9
20260505201006 26 196 16.1 22.5 0.00 0.00 0.00 29 1007.9
20260505200504 26 198 12.9 32.2 0.00 0.00 0.00 29 1008.1
20260505200000 26 225 11.3 17.7 0.00 0.00 0.00 29 1007.9
20260505195457 26 218 14.5 20.9 0.00 0.00 0.00 30 1007.7
20260505194954 26 191 17.7 24.1 0.00 0.00 0.00 31 1007.8
20260505194452 26 207 8.0 17.7 0.00 0.00 0.00 29 1008.0
20260505193952 26 214 6.4 12.9 0.00 0.00 0.00 29 1007.8
20260505193450 26 262 1.6 4.8 0.00 0.00 0.00 31 1008.1
20260505192947 26 204 4.8 11.3 0.00 0.00 0.00 31 1007.9
20260505192445 26 201 6.4 9.7 0.00 0.00 0.00 30 1007.8
20260505191942 26 270 11.3 33.8 0.00 0.00 0.00 29 1007.8
20260505191441 26 205 19.3 24.1 0.00 0.00 0.00 29 1008.0
20260505190937 27 189 11.3 17.7 0.00 0.00 0.00 32 1008.2
20260505190432 26 215 22.5 29.0 0.00 0.00 0.00 31 1008.1
20260505185928 26 153 8.0 12.9 0.00 0.00 0.00 34 1008.1
20260505185426 27 167 9.7 14.5 0.00 0.00 0.00 32 1008.2
20260505184922 27 213 11.3 14.5 0.00 0.00 0.00 31 1008.7
20260505184419 26 227 25.7 35.4 0.00 0.00 0.00 32 1008.6
20260505183916 26 204 22.5 32.2 0.00 0.00 0.00 29 1008.7
20260505183413 26 233 19.3 25.7 0.00 0.00 0.00 32 1008.4
20260505182909 27 201 20.9 32.2 0.00 0.00 0.00 32 1008.9
20260505182406 26 217 16.1 27.4 0.00 0.00 0.00 34 1008.8
20260505181902 26 208 12.9 16.1 0.00 0.00 0.00 34 1008.9
20260505181400 26 273 9.7 16.1 0.00 0.00 0.00 35 1008.6
20260505180856 26 196 9.7 14.5 0.00 0.00 0.00 35 1008.9
20260505180353 26 248 9.7 12.9 0.00 0.00 0.00 35 1008.7
20260505175850 26 188 11.3 16.1 0.00 0.00 0.00 37 1008.9
20260505175346 26 185 8.0 14.5 0.00 0.00 0.00 38 1008.9
20260505174843 27 166 8.0 11.3 0.00 0.00 0.00 37 1009.0
20260505174340 26 309 1.6 4.8 0.00 0.00 0.00 40 1009.0
20260505173836 26 215 8.0 9.7 0.00 0.00 0.00 40 1009.0
20260505173333 26 229 8.0 12.9 0.00 0.00 0.00 37 1009.2
20260505172830 26 212 11.3 12.9 0.00 0.00 0.00 38 1009.2
20260505172327 26 232 6.4 12.9 0.00 0.00 0.00 39 1009.3
20260505171821 26 222 11.3 22.5 0.00 0.00 0.00 38 1009.5
20260505171318 25 229 3.2 12.9 0.00 0.00 0.00 40 1009.4
20260505170814 25 256 8.0 12.9 0.00 0.00 0.00 40 1009.7
20260505170312 25 210 12.9 16.1 0.00 0.00 0.00 39 1009.4
20260505165807 25 267 8.0 14.5 0.00 0.00 0.00 40 1009.6
20260505165305 25 283 8.0 12.9 0.00 0.00 0.00 42 1009.7
20260505164758 25 156 4.8 8.0 0.00 0.00 0.00 40 1009.7
20260505164256 25 243 6.4 9.7 0.00 0.00 0.00 41 1009.8
20260505163754 25 193 11.3 12.9 0.00 0.00 0.00 44 1009.9
20260505163252 25 198 4.8 9.7 0.00 0.00 0.00 43 1010.0
20260505162749 25 213 6.4 11.3 0.00 0.00 0.00 43 1010.0
20260505162246 25 180 0.0 3.2 0.00 0.00 0.00 42 1010.1
20260505161743 25 203 4.8 8.0 0.00 0.00 0.00 45 1010.2
20260505161241 24 208 1.6 3.2 0.00 0.00 0.00 43 1010.1
20260505160738 25 210 8.0 12.9 0.00 0.00 0.00 43 1010.1
20260505160236 23 211 4.8 8.0 0.00 0.00 0.00 47 1010.2
20260505153215 23 239 3.2 9.7 0.00 0.00 0.00 47 1010.8
20260505152711 23 221 4.8 11.3 0.00 0.00 0.00 45 1010.8
20260505152208 22 195 0.0 0.0 0.00 0.00 0.00 49 1010.7
20260505151703 22 213 4.8 8.0 0.00 0.00 0.00 48 1010.7
20260505151200 22 225 1.6 3.2 0.00 0.00 0.00 48 1010.9
20260505150656 21 185 3.2 3.2 0.00 0.00 0.00 51 1010.6
20260505150154 21 202 3.2 4.8 0.00 0.00 0.00 51 1010.9
20260505140622 20 195 4.8 4.8 0.00 0.00 0.00 57 1011.5
20260505140119 20 203 0.0 0.0 0.00 0.00 0.00 57 1011.4
20260505125036 17 210 0.0 0.0 0.00 0.00 0.00 63 1010.9
20260505124532 17 226 1.6 8.0 0.00 0.00 0.00 65 1011.2
20260505124028 17 8 0.0 1.6 0.00 0.00 0.00 66 1011.1
20260505123525 17 252 3.2 4.8 0.00 0.00 0.00 66 1011.3
20260505123021 17 160 0.0 0.0 0.00 0.00 0.00 66 1011.3
20260505122518 17 285 0.0 1.6 0.00 0.00 0.00 67 1011.1
20260505122015 16 243 0.0 1.6 0.00 0.00 0.00 68 1011.1
20260505121512 16 266 1.6 4.8 0.00 0.00 0.00 68 1010.8
20260505121009 16 296 0.0 0.0 0.00 0.00 0.00 69 1010.8
20260505120505 16 221 0.0 0.0 0.00 0.00 0.00 71 1010.8
20260505120005 15 306 0.0 0.0 0.00 0.00 0.00 71 1011.0
20260505115500 15 256 0.0 0.0 0.00 0.00 0.00 73 1010.9
20260505114958 15 218 0.0 0.0 0.00 0.00 0.00 72 1011.0
20260505114454 15 281 0.0 0.0 0.00 0.00 0.00 73 1011.2
20260505113951 15 252 0.0 0.0 0.00 0.00 0.00 74 1011.1
20260505113447 15 186 0.0 0.0 0.00 0.00 0.00 74 1011.0
20260505112943 14 256 0.0 1.6 0.00 0.00 0.00 76 1011.1
20260505112441 13 283 0.0 0.0 0.00 0.00 0.00 77 1011.2
20260505111937 13 186 0.0 0.0 0.00 0.00 0.00 79 1011.3
20260505111432 13 289 0.0 0.0 0.00 0.00 0.00 79 1011.0
20260505110928 13 317 0.0 0.0 0.00 0.00 0.00 81 1011.0
20260505110425 12 354 0.0 0.0 0.00 0.00 0.00 83 1010.9
20260505101856 12 141 0.0 0.0 0.00 0.00 0.00 75 1010.3
20260505101351 12 120 0.0 0.0 0.00 0.00 0.00 73 1010.4
20260505100847 13 143 0.0 0.0 0.00 0.00 0.00 70 1010.8
20260505100344 13 151 0.0 0.0 0.00 0.00 0.00 70 1010.7
20260505095839 13 159 0.0 0.0 0.00 0.00 0.00 69 1010.6
20260505095337 13 200 0.0 0.0 0.00 0.00 0.00 69 1010.9
20260505094833 13 169 0.0 0.0 0.00 0.00 0.00 68 1011.0
20260505094330 13 271 1.6 3.2 0.00 0.00 0.00 68 1010.9
20260505093825 13 272 0.0 0.0 0.00 0.00 0.00 66 1010.9
20260505093324 14 281 0.0 0.0 0.00 0.00 0.00 65 1010.8
20260505092820 13 197 0.0 0.0 0.00 0.00 0.00 65 1010.6
20260505092319 13 210 0.0 0.0 0.00 0.00 0.00 65 1010.7
20260505091815 13 240 1.6 3.2 0.00 0.00 0.00 66 1010.6
20260505091314 13 257 0.0 0.0 0.00 0.00 0.00 66 1010.3
20260505090811 13 317 0.0 0.0 0.00 0.00 0.00 66 1010.6
20260505090309 13 298 0.0 0.0 0.00 0.00 0.00 65 1010.4
20260505085806 13 283 0.0 0.0 0.00 0.00 0.00 65 1010.3
20260505085305 13 294 0.0 0.0 0.00 0.00 0.00 64 1010.3
20260505084801 13 286 0.0 0.0 0.00 0.00 0.00 64 1010.3
20260505084300 13 269 0.0 0.0 0.00 0.00 0.00 63 1010.3
20260505083756 13 279 0.0 0.0 0.00 0.00 0.00 63 1010.1
20260505083253 13 248 0.0 0.0 0.00 0.00 0.00 63 1010.0
20260505082749 13 298 0.0 0.0 0.00 0.00 0.00 62 1010.2
20260505082247 13 249 0.0 0.0 0.00 0.00 0.00 62 1010.1
20260505081743 13 285 0.0 0.0 0.00 0.00 0.00 62 1010.3
20260505081240 13 287 0.0 0.0 0.00 0.00 0.00 62 1010.2
20260505080737 13 261 0.0 0.0 0.00 0.00 0.00 62 1010.1
20260505080232 13 274 0.0 0.0 0.00 0.00 0.00 61 1010.0
20260505075728 13 288 0.0 0.0 0.00 0.00 0.00 62 1010.2
20260505075226 13 281 0.0 0.0 0.00 0.00 0.00 62 1010.2
20260505074723 13 267 0.0 0.0 0.00 0.00 0.00 62 1010.2
20260505074220 13 299 0.0 0.0 0.00 0.00 0.00 62 1010.3
20260505073718 13 296 0.0 0.0 0.00 0.00 0.00 62 1010.2
20260505073215 13 304 0.0 0.0 0.00 0.00 0.00 62 1010.2
20260505072711 13 301 0.0 0.0 0.00 0.00 0.00 62 1010.2
20260505072208 13 298 0.0 0.0 0.00 0.00 0.00 62 1010.1
20260505071703 13 322 0.0 0.0 0.00 0.00 0.00 61 1010.0
20260505071201 13 271 0.0 0.0 0.00 0.00 0.00 61 1010.1
20260505070658 13 251 0.0 0.0 0.00 0.00 0.00 60 1010.1
20260505070154 13 224 0.0 0.0 0.00 0.00 0.00 60 1010.0
20260505065650 13 205 0.0 0.0 0.00 0.00 0.00 60 1010.2
20260505065147 13 238 0.0 0.0 0.00 0.00 0.00 60 1010.1
20260505064644 13 244 0.0 0.0 0.00 0.00 0.00 60 1010.0
20260505064142 13 231 0.0 0.0 0.00 0.00 0.00 61 1010.4
20260505063639 13 259 0.0 0.0 0.00 0.00 0.00 61 1010.2
20260505063135 13 278 0.0 0.0 0.00 0.00 0.00 60 1010.3
20260505062632 13 304 0.0 0.0 0.00 0.00 0.00 60 1010.1
20260505062129 13 248 0.0 0.0 0.00 0.00 0.00 59 1010.3
20260505061626 14 303 0.0 0.0 0.00 0.00 0.00 59 1010.2
20260505061124 14 218 0.0 0.0 0.00 0.00 0.00 59 1010.3
20260505060622 14 297 0.0 0.0 0.00 0.00 0.00 58 1010.4
20260505060118 14 207 0.0 0.0 0.00 0.00 0.00 58 1010.4
20260505055613 14 272 0.0 0.0 0.00 0.00 0.00 57 1010.3
20260505055110 15 180 0.0 0.0 0.00 0.00 0.00 57 1010.2
20260505054608 15 182 0.0 0.0 0.00 0.00 0.00 56 1010.4
20260505054106 15 202 3.2 3.2 0.00 0.00 0.00 55 1010.2
20260505053602 15 266 0.0 0.0 0.00 0.00 0.00 55 1010.3
20260505053059 15 262 0.0 0.0 0.00 0.00 0.00 54 1010.4
20260505052556 15 203 0.0 0.0 0.00 0.00 0.00 54 1010.4
20260505052054 15 194 0.0 0.0 0.00 0.00 0.00 53 1010.3
20260505051550 15 183 0.0 0.0 0.00 0.00 0.00 53 1010.3
20260505051048 15 211 0.0 0.0 0.00 0.00 0.00 53 1010.2
20260505050546 15 250 0.0 0.0 0.00 0.00 0.00 52 1010.5